TITAN 3C TRANSTAGE DEB, 43284

Orbit data source: Space-Track

TITAN 3C TRANSTAGE DEB, 43284 is space debris in GEO originally from a launch on Sun, 09 Feb 1969 UTC launched from the Air Force Eastern Test Range (AFETR). Debris objects in space refer to the collection of defunct objects orbiting the Earth. Examples of debris include non-operational satellites, rocket bodies, and fragments generated from explosions, collisions, or faulty payload assembly.

Loading next visibility...
Identifier
43284, 1969-013E
Orbit
GEO
Country
Flag of USUS
Related business
Manufacturer
Martin Marietta
Mission
Spacecraft
Bus & Motor
Unknown
Mass
Unknown
Launch date (UTC)
1969-02-09 (57 years ago)
Launch vehicle
Unknown
Launch site
Air Force Eastern Test Range (AFETR)
Object type
Payload
Rocket body
Debris
Shape & HBR
Unknown
Radar Cross Section
RCS unknown

Expand to show TLE details & history
Last TLE update: 11 hours ago

TLE from 11 hours ago
0 TITAN 3C TRANSTAGE DEB
1 43284U 69013E   25258.44329916 -.00000157  00000-0  00000-0 0  9994
2 43284   0.6175  70.7946 0143003  47.3831 243.2726  0.97232159 26611
Epoch: 2025-09-15T10:38Z
TLE epoch observation values (Epoch: 2025-09-15T10:38:21.047Z)
Latitude
-0.59076°
Longitude
-154.23462°
Altitude
36,946.238 km
Speed
3.023 km/s
True Right ascension
00h 00m 00s
True Declination
0° 35' 25"
Sunlit
Object was in full shadow at epoch
Visualization orbit readout
Latitude
Unknown
Longitude
Unknown
Altitude
Unknown
Speed
Unknown
Apparent Right ascension
Unknown
Apparent Declination
Unknown
Sunlit
N/A
Visualization observer readout
Local Sidereal Time
13:55:15
Azimuth
Unknown
Elevation
Unknown
Doppler factor
Unknown
Orbital elements
Apogee altitude
37,277.37 km
Perigee altitude
36,046.4 km
Semi-major axis
43,040.022 km
Eccentricity
0.0143
Inclination
0.6175°
RAAN
70.7946°
Arg. of periapsis
47.3831°
True anomaly
241.82082°
Mean anomaly
243.2726°
Eccentric anomaly
242.54553°
Mean motion
0.24307 °/min
Orbital period
1,481.04 mins
BSTAR
0
Loading maneuver chart data...
Computing Atmospheric mass density...

Documentation

Showing up to 5 results
|